| time (UTC) | temp C | wind direction | speed KPH | gust KPH | rain 1hr cm | rain 24hr cm | rain mn cm | humidity % | barometer mb |
| 20260906232557 | 19 | 13 | 16.1 | 20.9 | 0.00 | 0.00 | 0.00 | 65 | 1013.7 |
| 20260906232054 | 19 | 348 | 16.1 | 20.9 | 0.00 | 0.00 | 0.00 | 65 | 1013.8 |
| 20260906231616 | 19 | 9 | 12.9 | 17.7 | 0.00 | 0.00 | 0.00 | 65 | 1013.9 |
| 20260906231054 | 19 | 18 | 12.9 | 19.3 | 0.00 | 0.00 | 0.00 | 66 | 1014.0 |
| 20260906230555 | 19 | 342 | 14.5 | 19.3 | 0.00 | 0.00 | 0.00 | 65 | 1014.1 |
| 20260906230104 | 19 | 344 | 11.3 | 20.9 | 0.00 | 0.00 | 0.00 | 66 | 1013.9 |
| 20260906225554 | 19 | 332 | 12.9 | 20.9 | 0.00 | 0.00 | 0.00 | 65 | 1014.1 |
| 20260906225054 | 19 | 352 | 11.3 | 17.7 | 0.00 | 0.00 | 0.00 | 65 | 1014.2 |
| 20260906224602 | 18 | 342 | 12.9 | 17.7 | 0.00 | 0.00 | 0.00 | 65 | 1014.3 |
| 20260906224054 | 18 | 360 | 11.3 | 17.7 | 0.00 | 0.00 | 0.00 | 65 | 1014.4 |
| 20260906223555 | 18 | 342 | 14.5 | 20.9 | 0.00 | 0.00 | 0.00 | 66 | 1014.3 |
| 20260906223109 | 18 | 324 | 12.9 | 20.9 | 0.00 | 0.00 | 0.00 | 66 | 1014.4 |
| 20260906222554 | 18 | 9 | 9.7 | 17.7 | 0.00 | 0.00 | 0.00 | 66 | 1014.4 |
| 20260906222054 | 18 | 339 | 11.3 | 17.7 | 0.00 | 0.00 | 0.00 | 65 | 1014.5 |
| 20260906221607 | 18 | 360 | 14.5 | 19.3 | 0.00 | 0.00 | 0.00 | 66 | 1014.4 |
| 20260906221054 | 18 | 352 | 11.3 | 19.3 | 0.00 | 0.00 | 0.00 | 67 | 1014.4 |
| 20260906220554 | 18 | 321 | 11.3 | 17.7 | 0.00 | 0.00 | 0.00 | 66 | 1014.4 |
| 20260906220058 | 18 | 18 | 12.9 | 17.7 | 0.00 | 0.00 | 0.00 | 65 | 1014.4 |
| 20260906215558 | 18 | 9 | 11.3 | 17.7 | 0.00 | 0.00 | 0.00 | 66 | 1014.5 |
| 20260906215054 | 18 | 18 | 9.7 | 17.7 | 0.00 | 0.00 | 0.00 | 66 | 1014.4 |
| 20260906214607 | 18 | 16 | 11.3 | 19.3 | 0.00 | 0.00 | 0.00 | 66 | 1014.4 |
| 20260906214054 | 18 | 352 | 12.9 | 19.3 | 0.00 | 0.00 | 0.00 | 66 | 1014.3 |
| 20260906213555 | 18 | 326 | 8.0 | 19.3 | 0.00 | 0.00 | 0.00 | 66 | 1014.3 |
| 20260906213103 | 18 | 9 | 9.7 | 16.1 | 0.00 | 0.00 | 0.00 | 66 | 1014.3 |
| 20260906212554 | 18 | 9 | 8.0 | 17.7 | 0.00 | 0.00 | 0.00 | 67 | 1014.4 |
| 20260906212057 | 18 | 22 | 12.9 | 17.7 | 0.00 | 0.00 | 0.00 | 66 | 1014.4 |
| 20260906211600 | 18 | 352 | 11.3 | 17.7 | 0.00 | 0.00 | 0.00 | 67 | 1014.5 |
| 20260906211054 | 18 | 13 | 9.7 | 17.7 | 0.00 | 0.00 | 0.00 | 67 | 1014.6 |
| 20260906210554 | 18 | 342 | 8.0 | 16.1 | 0.00 | 0.00 | 0.00 | 68 | 1014.6 |
| 20260906210107 | 18 | 30 | 8.0 | 17.7 | 0.00 | 0.00 | 0.00 | 69 | 1014.6 |
| 20260906205554 | 18 | 9 | 12.9 | 17.7 | 0.00 | 0.00 | 0.00 | 69 | 1014.7 |
| 20260906205053 | 18 | 333 | 6.4 | 16.1 | 0.00 | 0.00 | 0.00 | 71 | 1014.7 |
| 20260906204615 | 18 | 5 | 3.2 | 14.5 | 0.00 | 0.00 | 0.00 | 71 | 1014.6 |
| 20260906204054 | 17 | 42 | 6.4 | 11.3 | 0.00 | 0.00 | 0.00 | 72 | 1014.8 |
| 20260906203554 | 17 | 15 | 3.2 | 6.4 | 0.00 | 0.00 | 0.00 | 73 | 1014.8 |
| 20260906203100 | 17 | 17 | 4.8 | 8.0 | 0.00 | 0.00 | 0.00 | 73 | 1015.0 |
| 20260906202555 | 17 | 32 | 4.8 | 8.0 | 0.00 | 0.00 | 0.00 | 77 | 1014.9 |
| 20260906202055 | 17 | 48 | 4.8 | 9.7 | 0.00 | 0.00 | 0.00 | 77 | 1014.9 |
| 20260906201604 | 17 | 43 | 3.2 | 8.0 | 0.00 | 0.00 | 0.00 | 77 | 1015.0 |
| 20260906201057 | 17 | 78 | 4.8 | 8.0 | 0.00 | 0.00 | 0.00 | 77 | 1015.3 |
| 20260906200553 | 17 | 65 | 4.8 | 12.9 | 0.00 | 0.00 | 0.00 | 77 | 1015.2 |
| 20260906200104 | 17 | 11 | 4.8 | 12.9 | 0.00 | 0.00 | 0.00 | 77 | 1015.2 |
| 20260906195555 | 17 | 36 | 4.8 | 12.9 | 0.00 | 0.00 | 0.00 | 77 | 1015.3 |
| 20260906195054 | 16 | 63 | 6.4 | 12.9 | 0.00 | 0.00 | 0.00 | 77 | 1015.4 |
| 20260906194608 | 16 | 30 | 4.8 | 11.3 | 0.00 | 0.00 | 0.00 | 77 | 1015.3 |
| 20260906194054 | 16 | 71 | 6.4 | 11.3 | 0.00 | 0.00 | 0.00 | 78 | 1015.3 |
| 20260906193555 | 16 | 34 | 6.4 | 16.1 | 0.00 | 0.00 | 0.00 | 78 | 1015.3 |
| 20260906193102 | 16 | 57 | 8.0 | 19.3 | 0.00 | 0.00 | 0.00 | 78 | 1015.4 |
| 20260906192555 | 16 | 72 | 9.7 | 19.3 | 0.00 | 0.00 | 0.00 | 78 | 1015.4 |
| 20260906192056 | 16 | 42 | 9.7 | 19.3 | 0.00 | 0.00 | 0.00 | 78 | 1015.4 |
| 20260906191612 | 16 | 82 | 11.3 | 22.5 | 0.00 | 0.00 | 0.00 | 79 | 1015.3 |
| 20260906191053 | 15 | 38 | 14.5 | 22.5 | 0.00 | 0.00 | 0.00 | 79 | 1015.4 |
| 20260906190555 | 15 | 54 | 12.9 | 22.5 | 0.00 | 0.00 | 0.00 | 79 | 1015.5 |
| 20260906190105 | 15 | 58 | 12.9 | 22.5 | 0.00 | 0.00 | 0.00 | 79 | 1015.4 |
| 20260906185554 | 15 | 65 | 11.3 | 20.9 | 0.00 | 0.00 | 0.00 | 80 | 1015.5 |
| 20260906185054 | 15 | 42 | 11.3 | 20.9 | 0.00 | 0.00 | 0.00 | 82 | 1015.5 |
| 20260906184611 | 15 | 47 | 9.7 | 22.5 | 0.00 | 0.00 | 0.00 | 82 | 1015.7 |
| 20260906184056 | 15 | 55 | 12.9 | 22.5 | 0.00 | 0.00 | 0.00 | 82 | 1015.8 |
| 20260906183555 | 15 | 60 | 14.5 | 24.1 | 0.00 | 0.00 | 0.00 | 83 | 1016.0 |
| 20260906183115 | 15 | 48 | 17.7 | 24.1 | 0.00 | 0.00 | 0.00 | 83 | 1016.1 |
| 20260906182554 | 15 | 32 | 16.1 | 27.4 | 0.00 | 0.00 | 0.00 | 85 | 1016.0 |
| 20260906182058 | 15 | 37 | 16.1 | 24.1 | 0.00 | 0.00 | 0.00 | 87 | 1016.0 |
| 20260906181605 | 15 | 68 | 16.1 | 24.1 | 0.00 | 0.00 | 0.00 | 88 | 1015.7 |
| 20260906181054 | 15 | 61 | 16.1 | 22.5 | 0.00 | 0.00 | 0.00 | 87 | 1015.7 |
| 20260906180554 | 15 | 67 | 12.9 | 20.9 | 0.00 | 0.00 | 0.00 | 87 | 1015.9 |
| 20260906180125 | 15 | 40 | 11.3 | 19.3 | 0.00 | 0.00 | 0.00 | 87 | 1016.1 |
| 20260906175557 | 15 | 19 | 11.3 | 17.7 | 0.00 | 0.00 | 0.00 | 87 | 1016.4 |
| 20260906175058 | 14 | 23 | 11.3 | 17.7 | 0.00 | 0.00 | 0.00 | 87 | 1016.5 |
| 20260906174621 | 13 | 350 | 11.3 | 17.7 | 0.00 | 0.00 | 0.00 | 87 | 1016.6 |
| 20260906174054 | 13 | 346 | 12.9 | 17.7 | 0.00 | 0.00 | 0.00 | 88 | 1016.5 |
| 20260906173555 | 13 | 333 | 14.5 | 19.3 | 0.00 | 0.00 | 0.00 | 89 | 1016.6 |
| 20260906173105 | 13 | 336 | 14.5 | 19.3 | 0.00 | 0.00 | 0.00 | 89 | 1016.7 |
| 20260906172556 | 13 | 317 | 14.5 | 19.3 | 0.00 | 0.00 | 0.00 | 89 | 1016.6 |
| 20260906172054 | 13 | 326 | 14.5 | 20.9 | 0.00 | 0.00 | 0.00 | 90 | 1016.7 |
| 20260906171615 | 13 | 322 | 16.1 | 20.9 | 0.00 | 0.00 | 0.00 | 90 | 1016.7 |
| 20260906171054 | 13 | 320 | 17.7 | 22.5 | 0.00 | 0.00 | 0.00 | 90 | 1016.8 |
| 20260906170554 | 12 | 327 | 17.7 | 22.5 | 0.00 | 0.00 | 0.00 | 90 | 1016.8 |
| 20260906170112 | 12 | 325 | 16.1 | 22.5 | 0.00 | 0.00 | 0.00 | 90 | 1016.9 |
| 20260906165554 | 12 | 318 | 17.7 | 24.1 | 0.00 | 0.00 | 0.00 | 90 | 1017.0 |
| 20260906165055 | 12 | 327 | 17.7 | 24.1 | 0.00 | 0.00 | 0.00 | 90 | 1017.1 |
| 20260906164602 | 12 | 307 | 17.7 | 24.1 | 0.00 | 0.00 | 0.00 | 90 | 1017.1 |
| 20260906164054 | 12 | 314 | 16.1 | 20.9 | 0.00 | 0.00 | 0.00 | 89 | 1017.0 |
| 20260906163554 | 12 | 323 | 16.1 | 22.5 | 0.00 | 0.00 | 0.00 | 89 | 1017.0 |
| 20260906163113 | 12 | 315 | 16.1 | 22.5 | 0.00 | 0.00 | 0.00 | 89 | 1017.1 |
| 20260906162558 | 12 | 336 | 16.1 | 22.5 | 0.00 | 0.00 | 0.00 | 88 | 1017.1 |
| 20260906162053 | 12 | 337 | 17.7 | 22.5 | 0.00 | 0.00 | 0.00 | 88 | 1017.1 |
| 20260906161623 | 12 | 319 | 17.7 | 24.1 | 0.00 | 0.00 | 0.00 | 87 | 1017.1 |
| 20260906161055 | 12 | 344 | 14.5 | 24.1 | 0.00 | 0.00 | 0.00 | 87 | 1017.2 |
| 20260906160554 | 12 | 311 | 17.7 | 24.1 | 0.00 | 0.00 | 0.00 | 86 | 1017.3 |
| 20260906160104 | 13 | 333 | 19.3 | 24.1 | 0.00 | 0.00 | 0.00 | 85 | 1017.3 |
| 20260906155558 | 13 | 327 | 17.7 | 24.1 | 0.00 | 0.00 | 0.00 | 83 | 1017.3 |
| 20260906155054 | 13 | 305 | 17.7 | 24.1 | 0.00 | 0.00 | 0.00 | 83 | 1017.4 |
| 20260906154605 | 13 | 317 | 14.5 | 22.5 | 0.00 | 0.00 | 0.00 | 83 | 1017.4 |
| 20260906154053 | 13 | 316 | 17.7 | 22.5 | 0.00 | 0.00 | 0.00 | 83 | 1017.4 |
| 20260906153556 | 13 | 317 | 16.1 | 22.5 | 0.00 | 0.00 | 0.00 | 83 | 1017.4 |
| 20260906153121 | 13 | 309 | 14.5 | 22.5 | 0.00 | 0.00 | 0.00 | 83 | 1017.5 |
| 20260906152554 | 13 | 321 | 17.7 | 24.1 | 0.00 | 0.00 | 0.00 | 83 | 1017.4 |
| 20260906152054 | 13 | 324 | 16.1 | 22.5 | 0.00 | 0.00 | 0.00 | 83 | 1017.2 |
| 20260906151602 | 14 | 303 | 14.5 | 22.5 | 0.00 | 0.00 | 0.00 | 83 | 1017.4 |
| 20260906151055 | 14 | 298 | 16.1 | 22.5 | 0.00 | 0.00 | 0.00 | 82 | 1017.6 |
| 20260906150555 | 15 | 292 | 8.0 | 11.3 | 0.00 | 0.00 | 0.00 | 84 | 1017.7 |
| 20260906150110 | 15 | 311 | 4.8 | 6.4 | 0.00 | 0.00 | 0.00 | 84 | 1017.8 |
| 20260906145556 | 15 | 298 | 4.8 | 6.4 | 0.00 | 0.00 | 0.00 | 84 | 1017.8 |
| 20260906145056 | 15 | 304 | 3.2 | 4.8 | 0.00 | 0.00 | 0.00 | 84 | 1018.0 |
| 20260906144605 | 15 | 305 | 3.2 | 8.0 | 0.00 | 0.00 | 0.00 | 84 | 1018.0 |
| 20260906144054 | 15 | 15 | 1.6 | 9.7 | 0.00 | 0.00 | 0.00 | 84 | 1017.9 |
| 20260906143555 | 15 | 26 | 4.8 | 11.3 | 0.00 | 0.00 | 0.00 | 83 | 1017.7 |
| 20260906143103 | 15 | 41 | 6.4 | 11.3 | 0.00 | 0.00 | 0.00 | 83 | 1017.7 |
| 20260906142554 | 15 | 71 | 6.4 | 12.9 | 0.00 | 0.00 | 0.00 | 83 | 1017.6 |
| 20260906142054 | 15 | 69 | 8.0 | 16.1 | 0.00 | 0.00 | 0.00 | 83 | 1017.4 |
| 20260906141621 | 15 | 74 | 8.0 | 16.1 | 0.00 | 0.00 | 0.00 | 83 | 1017.4 |
| 20260906141054 | 15 | 74 | 6.4 | 12.9 | 0.00 | 0.00 | 0.00 | 83 | 1017.2 |
| 20260906140555 | 15 | 53 | 8.0 | 16.1 | 0.00 | 0.00 | 0.00 | 83 | 1017.4 |
| 20260906140103 | 15 | 80 | 8.0 | 16.1 | 0.00 | 0.00 | 0.00 | 83 | 1017.4 |
| 20260906135555 | 14 | 38 | 8.0 | 16.1 | 0.00 | 0.00 | 0.00 | 83 | 1017.2 |
| 20260906135054 | 14 | 72 | 8.0 | 14.5 | 0.00 | 0.00 | 0.00 | 83 | 1017.5 |
| 20260906134603 | 14 | 75 | 6.4 | 14.5 | 0.00 | 0.00 | 0.00 | 83 | 1017.6 |
| 20260906134052 | 14 | 66 | 8.0 | 16.1 | 0.00 | 0.00 | 0.00 | 83 | 1017.7 |
| 20260906133554 | 14 | 56 | 6.4 | 16.1 | 0.00 | 0.00 | 0.00 | 83 | 1017.7 |
| 20260906133111 | 14 | 58 | 11.3 | 16.1 | 0.00 | 0.00 | 0.00 | 83 | 1017.5 |
| 20260906132554 | 14 | 38 | 11.3 | 17.7 | 0.00 | 0.00 | 0.00 | 83 | 1017.5 |
| 20260906132054 | 14 | 57 | 12.9 | 17.7 | 0.00 | 0.00 | 0.00 | 82 | 1017.6 |
| 20260906131610 | 14 | 62 | 11.3 | 17.7 | 0.00 | 0.00 | 0.00 | 82 | 1017.6 |
| 20260906131054 | 14 | 24 | 9.7 | 20.9 | 0.00 | 0.00 | 0.00 | 82 | 1017.7 |
| 20260906130554 | 14 | 51 | 11.3 | 20.9 | 0.00 | 0.00 | 0.00 | 83 | 1017.6 |
| 20260906130106 | 14 | 22 | 14.5 | 19.3 | 0.00 | 0.00 | 0.00 | 83 | 1017.7 |
| 20260906125557 | 14 | 24 | 12.9 | 20.9 | 0.00 | 0.00 | 0.00 | 82 | 1017.6 |
| 20260906125055 | 14 | 41 | 16.1 | 20.9 | 0.00 | 0.00 | 0.00 | 83 | 1017.5 |
| 20260906124606 | 14 | 25 | 17.7 | 20.9 | 0.00 | 0.00 | 0.00 | 83 | 1017.5 |
| 20260906124054 | 14 | 35 | 14.5 | 20.9 | 0.00 | 0.00 | 0.00 | 83 | 1017.7 |
| 20260906123554 | 14 | 29 | 14.5 | 22.5 | 0.00 | 0.00 | 0.00 | 82 | 1017.9 |
| 20260906123109 | 14 | 25 | 16.1 | 22.5 | 0.00 | 0.00 | 0.00 | 82 | 1017.7 |
| 20260906122554 | 14 | 22 | 17.7 | 20.9 | 0.00 | 0.00 | 0.00 | 83 | 1017.7 |
| 20260906122054 | 14 | 29 | 12.9 | 25.7 | 0.00 | 0.00 | 0.00 | 83 | 1017.6 |
| 20260906121615 | 13 | 28 | 20.9 | 25.7 | 0.00 | 0.00 | 0.00 | 83 | 1017.3 |
| 20260906121054 | 13 | 360 | 19.3 | 25.7 | 0.00 | 0.00 | 0.00 | 83 | 1017.0 |
| 20260906120557 | 13 | 36 | 19.3 | 25.7 | 0.00 | 0.00 | 0.00 | 83 | 1017.1 |
| 20260906120113 | 13 | 26 | 16.1 | 22.5 | 0.00 | 0.00 | 0.00 | 83 | 1017.2 |
| 20260906115555 | 13 | 9 | 17.7 | 22.5 | 0.00 | 0.00 | 0.00 | 83 | 1017.2 |
| 20260906115055 | 13 | 5 | 17.7 | 22.5 | 0.00 | 0.00 | 0.00 | 83 | 1017.3 |
| 20260906114609 | 13 | 23 | 17.7 | 24.1 | 0.00 | 0.00 | 0.00 | 83 | 1017.3 |
| 20260906114052 | 13 | 9 | 17.7 | 24.1 | 0.00 | 0.00 | 0.00 | 83 | 1017.4 |
| 20260906113554 | 13 | 9 | 16.1 | 24.1 | 0.00 | 0.00 | 0.00 | 83 | 1017.3 |
| 20260906113103 | 13 | 26 | 14.5 | 20.9 | 0.00 | 0.00 | 0.00 | 83 | 1017.5 |
| 20260906112554 | 13 | 360 | 14.5 | 22.5 | 0.00 | 0.00 | 0.00 | 83 | 1017.4 |
| 20260906112054 | 13 | 13 | 16.1 | 24.1 | 0.00 | 0.00 | 0.00 | 83 | 1017.5 |
| 20260906111559 | 13 | 13 | 16.1 | 24.1 | 0.00 | 0.00 | 0.00 | 83 | 1017.3 |
| 20260906111054 | 13 | 360 | 16.1 | 24.1 | 0.00 | 0.00 | 0.00 | 83 | 1017.4 |
| 20260906110556 | 13 | 352 | 17.7 | 24.1 | 0.00 | 0.00 | 0.00 | 83 | 1017.4 |
| 20260906110103 | 13 | 9 | 17.7 | 25.7 | 0.00 | 0.00 | 0.00 | 83 | 1017.4 |
| 20260906105554 | 13 | 350 | 17.7 | 25.7 | 0.00 | 0.00 | 0.00 | 83 | 1017.4 |
| 20260906105053 | 13 | 360 | 16.1 | 22.5 | 0.00 | 0.00 | 0.00 | 83 | 1017.6 |
| 20260906104601 | 13 | 9 | 17.7 | 22.5 | 0.00 | 0.00 | 0.00 | 83 | 1017.7 |
| 20260906104055 | 13 | 352 | 16.1 | 22.5 | 0.00 | 0.00 | 0.00 | 83 | 1017.6 |
| 20260906103556 | 13 | 347 | 16.1 | 20.9 | 0.00 | 0.00 | 0.00 | 83 | 1017.7 |
| 20260906103109 | 13 | 10 | 16.1 | 20.9 | 0.00 | 0.00 | 0.00 | 83 | 1017.7 |
| 20260906102554 | 13 | 10 | 16.1 | 22.5 | 0.00 | 0.00 | 0.00 | 83 | 1017.9 |
| 20260906102053 | 13 | 5 | 17.7 | 22.5 | 0.00 | 0.00 | 0.00 | 83 | 1017.7 |
| 20260906101617 | 13 | 5 | 16.1 | 20.9 | 0.00 | 0.00 | 0.00 | 83 | 1017.7 |
| 20260906101137 | 13 | 346 | 16.1 | 24.1 | 0.00 | 0.00 | 0.00 | 83 | 1017.8 |
| 20260906100554 | 13 | 352 | 17.7 | 24.1 | 0.00 | 0.00 | 0.00 | 83 | 1017.8 |
| 20260906100059 | 13 | 352 | 17.7 | 22.5 | 0.00 | 0.00 | 0.00 | 82 | 1017.7 |
| 20260906095554 | 13 | 9 | 17.7 | 24.1 | 0.00 | 0.00 | 0.00 | 82 | 1017.6 |
| 20260906095054 | 13 | 15 | 16.1 | 22.5 | 0.00 | 0.00 | 0.00 | 82 | 1017.6 |
| 20260906094607 | 13 | 5 | 17.7 | 25.7 | 0.00 | 0.00 | 0.00 | 81 | 1017.6 |
| 20260906094054 | 13 | 352 | 20.9 | 27.4 | 0.00 | 0.00 | 0.00 | 81 | 1017.6 |
| 20260906093555 | 13 | 360 | 19.3 | 27.4 | 0.00 | 0.00 | 0.00 | 81 | 1017.5 |
| 20260906093102 | 13 | 13 | 22.5 | 27.4 | 0.00 | 0.00 | 0.00 | 81 | 1017.6 |
| 20260906092551 | 13 | 17 | 22.5 | 27.4 | 0.00 | 0.00 | 0.00 | 80 | 1017.6 |
| 20260906092054 | 13 | 360 | 20.9 | 25.7 | 0.00 | 0.00 | 0.00 | 80 | 1017.5 |
| 20260906091603 | 13 | 360 | 20.9 | 25.7 | 0.00 | 0.00 | 0.00 | 80 | 1017.7 |
| 20260906091053 | 13 | 360 | 17.7 | 24.1 | 0.00 | 0.00 | 0.00 | 80 | 1017.7 |
| 20260906090556 | 13 | 360 | 16.1 | 24.1 | 0.00 | 0.00 | 0.00 | 80 | 1017.8 |
| 20260906085554 | 13 | 9 | 16.1 | 24.1 | 0.00 | 0.00 | 0.00 | 79 | 1017.7 |
| 20260906085054 | 13 | 10 | 17.7 | 24.1 | 0.00 | 0.00 | 0.00 | 79 | 1017.7 |
| 20260906084601 | 13 | 9 | 17.7 | 25.7 | 0.00 | 0.00 | 0.00 | 79 | 1017.8 |
| 20260906084054 | 13 | 5 | 19.3 | 25.7 | 0.00 | 0.00 | 0.00 | 79 | 1017.8 |
| 20260906083554 | 13 | 9 | 19.3 | 27.4 | 0.00 | 0.00 | 0.00 | 79 | 1017.9 |
| 20260906083105 | 13 | 9 | 19.3 | 27.4 | 0.00 | 0.00 | 0.00 | 79 | 1018.0 |
| 20260906082558 | 13 | 5 | 16.1 | 22.5 | 0.00 | 0.00 | 0.00 | 78 | 1018.0 |
| 20260906082054 | 13 | 18 | 14.5 | 22.5 | 0.00 | 0.00 | 0.00 | 78 | 1018.0 |
| 20260906081605 | 14 | 13 | 14.5 | 20.9 | 0.00 | 0.00 | 0.00 | 78 | 1018.1 |
| 20260906081054 | 13 | 15 | 14.5 | 20.9 | 0.00 | 0.00 | 0.00 | 79 | 1018.3 |
| 20260906080555 | 13 | 11 | 14.5 | 19.3 | 0.00 | 0.00 | 0.00 | 79 | 1018.4 |
| 20260906075554 | 13 | 5 | 12.9 | 19.3 | 0.00 | 0.00 | 0.00 | 79 | 1018.5 |
| 20260906075054 | 13 | 20 | 12.9 | 22.5 | 0.00 | 0.00 | 0.00 | 78 | 1018.5 |
| 20260906074602 | 13 | 350 | 14.5 | 20.9 | 0.00 | 0.00 | 0.00 | 78 | 1018.4 |
| 20260906074054 | 13 | 19 | 14.5 | 25.7 | 0.00 | 0.00 | 0.00 | 78 | 1018.5 |
| 20260906073557 | 14 | 360 | 17.7 | 25.7 | 0.00 | 0.00 | 0.00 | 77 | 1018.5 |
| 20260906073103 | 14 | 14 | 17.7 | 22.5 | 0.00 | 0.00 | 0.00 | 77 | 1018.4 |
| 20260906072554 | 14 | 9 | 16.1 | 22.5 | 0.00 | 0.00 | 0.00 | 77 | 1018.6 |
| 20260906072053 | 14 | 345 | 17.7 | 22.5 | 0.00 | 0.00 | 0.00 | 77 | 1018.5 |
| 20260906071605 | 14 | 5 | 16.1 | 24.1 | 0.00 | 0.00 | 0.00 | 77 | 1018.6 |
| 20260906071055 | 14 | 13 | 16.1 | 24.1 | 0.00 | 0.00 | 0.00 | 77 | 1018.6 |
| 20260906070659 | 14 | 360 | 17.7 | 25.7 | 0.00 | 0.00 | 0.00 | 77 | 1018.7 |
| 20260906065554 | 14 | 345 | 17.7 | 27.4 | 0.00 | 0.00 | 0.00 | 76 | 1018.8 |
| 20260906065054 | 14 | 360 | 19.3 | 25.7 | 0.00 | 0.00 | 0.00 | 76 | 1018.8 |
| 20260906064603 | 14 | 352 | 19.3 | 27.4 | 0.00 | 0.00 | 0.00 | 76 | 1018.8 |
| 20260906064054 | 14 | 14 | 17.7 | 27.4 | 0.00 | 0.00 | 0.00 | 76 | 1018.8 |
| 20260906063554 | 14 | 350 | 17.7 | 24.1 | 0.00 | 0.00 | 0.00 | 75 | 1018.8 |
| 20260906063102 | 15 | 352 | 16.1 | 24.1 | 0.00 | 0.00 | 0.00 | 75 | 1019.1 |
| 20260906062554 | 15 | 9 | 17.7 | 24.1 | 0.00 | 0.00 | 0.00 | 75 | 1019.1 |
| 20260906062054 | 15 | 9 | 17.7 | 22.5 | 0.00 | 0.00 | 0.00 | 75 | 1019.1 |
| 20260906061606 | 14 | 352 | 16.1 | 22.5 | 0.00 | 0.00 | 0.00 | 75 | 1019.2 |
| 20260906061054 | 15 | 352 | 16.1 | 24.1 | 0.00 | 0.00 | 0.00 | 74 | 1019.2 |
| 20260906060554 | 15 | 9 | 19.3 | 27.4 | 0.00 | 0.00 | 0.00 | 74 | 1019.1 |
| 20260906060134 | 15 | 14 | 19.3 | 27.4 | 0.00 | 0.00 | 0.00 | 74 | 1019.1 |
| 20260906055552 | 15 | 11 | 17.7 | 27.4 | 0.00 | 0.00 | 0.00 | 73 | 1018.9 |
| 20260906055055 | 15 | 12 | 17.7 | 27.4 | 0.00 | 0.00 | 0.00 | 73 | 1018.9 |
| 20260906054616 | 15 | 28 | 17.7 | 25.7 | 0.00 | 0.00 | 0.00 | 72 | 1018.9 |
| 20260906054055 | 15 | 34 | 17.7 | 25.7 | 0.00 | 0.00 | 0.00 | 72 | 1018.8 |
| 20260906053555 | 15 | 22 | 20.9 | 27.4 | 0.00 | 0.00 | 0.00 | 71 | 1018.8 |
| 20260906053059 | 15 | 9 | 17.7 | 27.4 | 0.00 | 0.00 | 0.00 | 71 | 1018.8 |
| 20260906052554 | 15 | 9 | 20.9 | 27.4 | 0.00 | 0.00 | 0.00 | 71 | 1018.8 |
| 20260906052053 | 15 | 17 | 20.9 | 25.7 | 0.00 | 0.00 | 0.00 | 70 | 1018.8 |
| 20260906051605 | 15 | 22 | 17.7 | 27.4 | 0.00 | 0.00 | 0.00 | 69 | 1018.6 |
| 20260906051059 | 15 | 5 | 19.3 | 27.4 | 0.00 | 0.00 | 0.00 | 69 | 1018.5 |
| 20260906050557 | 15 | 16 | 20.9 | 27.4 | 0.00 | 0.00 | 0.00 | 69 | 1018.5 |
| 20260906050105 | 15 | 26 | 19.3 | 25.7 | 0.00 | 0.00 | 0.00 | 69 | 1018.5 |
| 20260906045554 | 15 | 17 | 17.7 | 25.7 | 0.00 | 0.00 | 0.00 | 68 | 1018.5 |
| 20260906045054 | 15 | 17 | 17.7 | 25.7 | 0.00 | 0.00 | 0.00 | 68 | 1018.6 |
| 20260906044559 | 15 | 360 | 20.9 | 25.7 | 0.00 | 0.00 | 0.00 | 68 | 1018.6 |
| 20260906044057 | 15 | 352 | 20.9 | 25.7 | 0.00 | 0.00 | 0.00 | 68 | 1018.4 |
| 20260906043555 | 15 | 343 | 16.1 | 25.7 | 0.00 | 0.00 | 0.00 | 68 | 1018.5 |
| 20260906043104 | 15 | 331 | 19.3 | 25.7 | 0.00 | 0.00 | 0.00 | 68 | 1018.6 |
| 20260906042555 | 15 | 352 | 20.9 | 24.1 | 0.00 | 0.00 | 0.00 | 68 | 1018.3 |
| 20260906042055 | 15 | 352 | 19.3 | 27.4 | 0.00 | 0.00 | 0.00 | 68 | 1018.1 |
| 20260906041602 | 15 | 341 | 19.3 | 29.0 | 0.00 | 0.00 | 0.00 | 68 | 1017.9 |
| 20260906041055 | 15 | 5 | 19.3 | 30.6 | 0.00 | 0.00 | 0.00 | 67 | 1017.9 |
| 20260906040553 | 15 | 9 | 22.5 | 30.6 | 0.00 | 0.00 | 0.00 | 67 | 1017.6 |
| 20260906040106 | 15 | 17 | 22.5 | 29.0 | 0.00 | 0.00 | 0.00 | 67 | 1017.6 |
| 20260906035554 | 15 | 352 | 20.9 | 29.0 | 0.00 | 0.00 | 0.00 | 67 | 1017.6 |
| 20260906035053 | 15 | 10 | 20.9 | 29.0 | 0.00 | 0.00 | 0.00 | 66 | 1017.6 |
| 20260906034606 | 15 | 9 | 22.5 | 32.2 | 0.00 | 0.00 | 0.00 | 66 | 1017.7 |
| 20260906034054 | 15 | 360 | 22.5 | 32.2 | 0.00 | 0.00 | 0.00 | 65 | 1017.8 |
| 20260906033554 | 15 | 360 | 22.5 | 30.6 | 0.00 | 0.00 | 0.00 | 65 | 1017.9 |
| 20260906033100 | 15 | 360 | 24.1 | 30.6 | 0.00 | 0.00 | 0.00 | 65 | 1017.9 |
| 20260906032553 | 16 | 9 | 22.5 | 32.2 | 0.00 | 0.00 | 0.00 | 64 | 1017.9 |
| 20260906032054 | 16 | 9 | 25.7 | 32.2 | 0.00 | 0.00 | 0.00 | 64 | 1017.8 |
| 20260906031605 | 16 | 5 | 25.7 | 32.2 | 0.00 | 0.00 | 0.00 | 64 | 1017.9 |
| 20260906031054 | 16 | 9 | 22.5 | 32.2 | 0.00 | 0.00 | 0.00 | 63 | 1017.8 |
| 20260906030553 | 16 | 11 | 20.9 | 32.2 | 0.00 | 0.00 | 0.00 | 63 | 1017.7 |
| 20260906030106 | 16 | 360 | 20.9 | 37.0 | 0.00 | 0.00 | 0.00 | 63 | 1017.7 |
| 20260906025554 | 16 | 31 | 22.5 | 37.0 | 0.00 | 0.00 | 0.00 | 62 | 1017.4 |
| 20260906025056 | 16 | 21 | 24.1 | 37.0 | 0.00 | 0.00 | 0.00 | 62 | 1017.0 |
| 20260906024621 | 16 | 24 | 25.7 | 35.4 | 0.00 | 0.00 | 0.00 | 62 | 1016.8 |
| 20260906024054 | 16 | 29 | 24.1 | 35.4 | 0.00 | 0.00 | 0.00 | 62 | 1016.8 |
| 20260906023554 | 16 | 26 | 27.4 | 33.8 | 0.00 | 0.00 | 0.00 | 61 | 1016.6 |
| 20260906023101 | 17 | 35 | 25.7 | 37.0 | 0.00 | 0.00 | 0.00 | 61 | 1016.5 |
| 20260906022555 | 17 | 34 | 29.0 | 38.6 | 0.00 | 0.00 | 0.00 | 61 | 1016.5 |
| 20260906022054 | 17 | 28 | 27.4 | 38.6 | 0.00 | 0.00 | 0.00 | 59 | 1016.5 |
| 20260906021607 | 17 | 24 | 24.1 | 35.4 | 0.00 | 0.00 | 0.00 | 58 | 1016.6 |
| 20260906021055 | 17 | 18 | 25.7 | 35.4 | 0.00 | 0.00 | 0.00 | 57 | 1016.5 |
| 20260906020554 | 18 | 28 | 22.5 | 33.8 | 0.00 | 0.00 | 0.00 | 57 | 1016.4 |
| 20260906020109 | 18 | 46 | 24.1 | 33.8 | 0.00 | 0.00 | 0.00 | 56 | 1016.4 |
| 20260906015558 | 18 | 22 | 22.5 | 33.8 | 0.00 | 0.00 | 0.00 | 55 | 1016.4 |
| 20260906015053 | 18 | 36 | 24.1 | 37.0 | 0.00 | 0.00 | 0.00 | 55 | 1016.4 |
| 20260906014607 | 18 | 38 | 25.7 | 37.0 | 0.00 | 0.00 | 0.00 | 54 | 1016.4 |
| 20260906014053 | 19 | 24 | 29.0 | 37.0 | 0.00 | 0.00 | 0.00 | 52 | 1016.4 |
| 20260906013555 | 19 | 17 | 27.4 | 35.4 | 0.00 | 0.00 | 0.00 | 51 | 1016.2 |
| 20260906013117 | 20 | 37 | 24.1 | 33.8 | 0.00 | 0.00 | 0.00 | 49 | 1016.1 |
| 20260906012554 | 20 | 26 | 24.1 | 35.4 | 0.00 | 0.00 | 0.00 | 47 | 1016.3 |
| 20260906012055 | 21 | 25 | 25.7 | 35.4 | 0.00 | 0.00 | 0.00 | 45 | 1016.2 |
| 20260906011602 | 22 | 35 | 22.5 | 30.6 | 0.00 | 0.00 | 0.00 | 40 | 1016.2 |
| 20260906011056 | 22 | 38 | 19.3 | 29.0 | 0.00 | 0.00 | 0.00 | 36 | 1016.2 |
| 20260906010553 | 22 | 44 | 20.9 | 29.0 | 0.00 | 0.00 | 0.00 | 35 | 1016.1 |
| 20260906010140 | 23 | 43 | 16.1 | 24.1 | 0.00 | 0.00 | 0.00 | 35 | 1016.1 |
| 20260906005554 | 23 | 69 | 17.7 | 22.5 | 0.00 | 0.00 | 0.00 | 34 | 1016.1 |
| 20260906005057 | 23 | 53 | 16.1 | 22.5 | 0.00 | 0.00 | 0.00 | 34 | 1016.1 |
| 20260906004617 | 23 | 49 | 14.5 | 22.5 | 0.00 | 0.00 | 0.00 | 33 | 1016.2 |
| 20260906004053 | 23 | 40 | 16.1 | 22.5 | 0.00 | 0.00 | 0.00 | 33 | 1016.2 |
| 20260906003553 | 23 | 52 | 11.3 | 20.9 | 0.00 | 0.00 | 0.00 | 33 | 1016.3 |
| 20260906003106 | 23 | 35 | 16.1 | 22.5 | 0.00 | 0.00 | 0.00 | 33 | 1016.2 |
| 20260906002553 | 23 | 63 | 16.1 | 24.1 | 0.00 | 0.00 | 0.00 | 33 | 1016.2 |
| 20260906002056 | 23 | 63 | 14.5 | 24.1 | 0.00 | 0.00 | 0.00 | 32 | 1016.2 |
| 20260906001607 | 23 | 69 | 17.7 | 24.1 | 0.00 | 0.00 | 0.00 | 32 | 1016.3 |
| 20260906001053 | 24 | 25 | 9.7 | 20.9 | 0.00 | 0.00 | 0.00 | 32 | 1016.4 |
| 20260906000555 | 24 | 66 | 8.0 | 22.5 | 0.00 | 0.00 | 0.00 | 32 | 1016.4 |
| 20260906000101 | 24 | 74 | 14.5 | 22.5 | 0.00 | 0.00 | 0.00 | 32 | 1016.4 |
| 20260905235554 | 24 | 5 | 16.1 | 22.5 | 0.00 | 0.00 | 0.00 | 32 | 1016.4 |
| 20260905235054 | 24 | 29 | 11.3 | 22.5 | 0.00 | 0.00 | 0.00 | 32 | 1016.4 |
| 20260905234611 | 25 | 49 | 9.7 | 20.9 | 0.00 | 0.00 | 0.00 | 32 | 1016.3 |
| 20260905234054 | 24 | 65 | 9.7 | 20.9 | 0.00 | 0.00 | 0.00 | 32 | 1016.4 |
| 20260905233554 | 25 | 57 | 12.9 | 19.3 | 0.00 | 0.00 | 0.00 | 31 | 1016.4 |
| 20260905233103 | 25 | 119 | 8.0 | 24.1 | 0.00 | 0.00 | 0.00 | 32 | 1016.5 |